FW1542 Weather Reports


Display with metric or nautical units.
time (UTC)temp
F
wind
direction
speed
MPH
gust
MPH
rain 1hr
in
rain 24hr
in
rain mn
in
humidity
%
barometer
mb
20260902130051 77 0 0.0 2.0 0.00 0.00 0.00 92 1015.5
20260902130025 77 171 0.0 2.0 0.00 0.00 0.00 92 1016.9
20260902124605 77 0 0.0 4.0 0.00 0.00 0.00 91 1015.5
20260902124531 77 192 0.0 3.0 0.00 0.00 0.00 92 1016.7
20260902123053 77 0 0.0 3.0 0.00 0.00 0.00 90 1015.3
20260902123023 77 166 0.0 4.0 0.00 0.00 0.00 91 1016.7
20260902121551 77 0 0.0 4.0 0.00 0.00 0.00 90 1015.1
20260902121523 77 167 0.0 3.0 0.00 0.00 0.00 91 1016.5
20260902120048 78 0 0.0 4.0 0.00 0.00 0.00 90 1015.1
20260902120023 78 168 0.0 4.0 0.00 0.00 0.00 91 1016.5
20260902114557 78 173 0.0 5.0 0.00 0.00 0.00 90 1015.0
20260902114524 78 173 0.0 5.0 0.00 0.00 0.00 91 1016.4
20260902113056 77 0 0.0 4.0 0.00 0.00 0.00 90 1015.0
20260902113021 77 153 0.0 4.0 0.00 0.00 0.00 91 1016.4
20260902111554 77 0 0.0 4.0 0.00 0.00 0.00 89 1014.9
20260902111522 77 204 0.0 4.0 0.00 0.00 0.00 90 1016.4
20260902110049 77 0 0.0 2.0 0.00 0.00 0.00 88 1015.0
20260902110020 77 203 0.0 2.0 0.00 0.00 0.00 89 1016.3
20260902104554 77 0 0.0 2.0 0.00 0.00 0.00 87 1014.9
20260902104519 77 169 0.0 2.0 0.00 0.00 0.00 87 1016.2
20260902103057 77 140 1.0 3.0 0.00 0.00 0.00 86 1014.8
20260902103033 77 140 1.0 3.0 0.00 0.00 0.00 86 1016.1
20260902101554 77 137 2.0 4.0 0.00 0.00 0.00 86 1014.9
20260902101525 77 137 2.0 4.0 0.00 0.00 0.00 86 1016.3
20260902100055 77 0 0.0 3.0 0.00 0.00 0.00 85 1014.9
20260902100013 77 148 0.0 3.0 0.00 0.00 0.00 85 1016.4
20260902094554 77 149 1.0 2.0 0.00 0.00 0.00 84 1014.9
20260902094511 77 150 1.0 3.0 0.00 0.00 0.00 85 1016.3
20260902093114 77 169 0.0 4.0 0.00 0.00 0.00 83 1015.1
20260902093009 78 169 0.0 3.0 0.00 0.00 0.00 84 1016.4
20260902091552 78 0 0.0 3.0 0.00 0.00 0.00 83 1015.0
20260902091508 78 135 0.0 2.0 0.00 0.00 0.00 83 1016.3
20260902090008 78 112 1.0 4.0 0.00 0.00 0.00 83 1016.5
20260902084557 78 113 1.0 3.0 0.00 0.00 0.00 81 1015.1
20260902084506 78 113 1.0 2.0 0.00 0.00 0.00 81 1016.5
20260902083056 79 111 1.0 3.0 0.00 0.00 0.00 80 1014.9
20260902083003 79 111 1.0 3.0 0.00 0.00 0.00 81 1016.4
20260902081613 79 108 0.0 2.0 0.00 0.00 0.00 79 1015.0
20260902081502 79 108 0.0 2.0 0.00 0.00 0.00 79 1016.5
20260902080100 80 120 0.0 2.0 0.00 0.00 0.00 78 1016.5
20260902080056 80 0 0.0 3.0 0.00 0.00 0.00 77 1015.1
20260902074559 80 117 0.0 3.0 0.00 0.00 0.00 76 1016.7
20260902074556 80 117 0.0 3.0 0.00 0.00 0.00 76 1015.2
20260902073057 81 117 1.0 3.0 0.00 0.00 0.00 75 1016.5
20260902073052 81 117 1.0 3.0 0.00 0.00 0.00 75 1015.2
20260902071602 81 128 1.0 4.0 0.00 0.00 0.00 74 1016.6
20260902071556 81 128 2.0 6.0 0.00 0.00 0.00 74 1015.2
20260902070051 82 145 2.0 4.0 0.00 0.00 0.00 72 1016.7
20260902064616 82 0 4.0 9.0 0.00 0.00 0.00 71 1015.1
20260902064601 82 137 3.0 9.0 0.00 0.00 0.00 72 1016.5
20260902063058 83 146 2.0 5.0 0.00 0.00 0.00 70 1015.1
20260902063051 83 144 1.0 5.0 0.00 0.00 0.00 70 1016.5
20260902061555 83 143 3.0 6.0 0.00 0.00 0.00 68 1014.9
20260902061550 83 130 3.0 5.0 0.00 0.00 0.00 69 1016.4
20260902060109 84 142 2.0 8.0 0.00 0.00 0.00 66 1014.8
20260902060045 84 148 2.0 5.0 0.00 0.00 0.00 67 1016.3
20260902054554 84 115 4.0 11.0 0.00 0.00 0.00 65 1014.7
20260902054542 84 115 4.0 9.0 0.00 0.00 0.00 66 1016.4
20260902053055 84 153 2.0 8.0 0.00 0.00 0.00 65 1014.8
20260902053039 84 153 2.0 8.0 0.00 0.00 0.00 66 1016.4
20260902051547 85 150 4.0 9.0 0.00 0.00 0.00 66 1014.7
20260902051539 85 109 5.0 10.0 0.00 0.00 0.00 66 1016.3
20260902050110 85 140 2.0 7.0 0.00 0.00 0.00 66 1014.6
20260902050034 85 140 2.0 7.0 0.00 0.00 0.00 66 1016.2
20260902044608 86 109 4.0 10.0 0.00 0.00 0.00 65 1014.3
20260902044541 86 103 4.0 10.0 0.00 0.00 0.00 65 1016.1
20260902043056 86 140 4.0 10.0 0.00 0.00 0.00 64 1014.3
20260902043032 86 124 4.0 10.0 0.00 0.00 0.00 65 1016.1
20260902041558 87 113 6.0 12.0 0.00 0.00 0.00 63 1014.3
20260902041532 87 113 5.0 12.0 0.00 0.00 0.00 64 1016.1
20260902040110 87 145 6.0 11.0 0.00 0.00 0.00 62 1014.2
20260902040032 87 145 6.0 11.0 0.00 0.00 0.00 63 1016.0
20260902034601 88 132 6.0 11.0 0.00 0.00 0.00 61 1014.1
20260902034533 88 113 7.0 11.0 0.00 0.00 0.00 61 1016.0
20260902033107 89 93 4.0 13.0 0.00 0.00 0.00 59 1014.0
20260902033030 89 93 4.0 13.0 0.00 0.00 0.00 60 1015.8
20260902031558 89 105 5.0 14.0 0.00 0.00 0.00 59 1013.6
20260902031530 89 105 4.0 13.0 0.00 0.00 0.00 59 1015.5
20260902030057 90 113 6.0 13.0 0.00 0.00 0.00 58 1013.6
20260902030029 90 114 6.0 13.0 0.00 0.00 0.00 58 1015.3
20260902024601 89 150 5.0 13.0 0.00 0.00 0.00 57 1013.4
20260902024529 89 101 4.0 13.0 0.00 0.00 0.00 57 1014.9
20260902023055 89 94 3.0 9.0 0.00 0.00 0.00 55 1013.2
20260902023030 89 114 3.0 9.0 0.00 0.00 0.00 56 1014.8
20260902021558 90 97 2.0 4.0 0.00 0.00 0.00 54 1012.7
20260902021543 90 97 2.0 4.0 0.00 0.00 0.00 55 1014.5
20260902020106 90 84 1.0 4.0 0.00 0.00 0.00 53 1012.5
20260902020027 90 84 1.0 3.0 0.00 0.00 0.00 54 1014.2
20260902014550 90 92 2.0 4.0 0.00 0.00 0.00 52 1012.2
20260902014536 90 90 2.0 4.0 0.00 0.00 0.00 52 1014.0
20260902013059 91 96 1.0 3.0 0.00 0.00 0.00 50 1012.1
20260902013026 91 96 1.0 2.0 0.00 0.00 0.00 51 1013.9
20260902011555 92 116 1.0 7.0 0.00 0.00 0.00 49 1012.2
20260902011528 92 116 1.0 7.0 0.00 0.00 0.00 49 1013.8
20260902010051 93 99 1.0 6.0 0.00 0.00 0.00 47 1011.9
20260902010025 93 99 1.0 4.0 0.00 0.00 0.00 48 1013.6
20260902004552 94 101 1.0 5.0 0.00 0.00 0.00 46 1011.9
20260902004528 94 101 1.0 5.0 0.00 0.00 0.00 47 1013.6
20260902003055 94 133 1.0 5.0 0.00 0.00 0.00 45 1012.0
20260902003029 94 155 1.0 5.0 0.00 0.00 0.00 46 1013.6
20260902001556 95 123 1.0 6.0 0.00 0.00 0.00 44 1011.9
20260902001523 95 136 2.0 5.0 0.00 0.00 0.00 45 1013.6
20260902000022 96 96 0.0 3.0 0.00 0.00 0.00 44 1013.5
20260901234550 96 141 0.0 6.0 0.00 0.00 0.00 44 1011.9
20260901234521 96 124 1.0 7.0 0.00 0.00 0.00 44 1013.6
20260901233050 96 0 1.0 8.0 0.00 0.00 0.00 43 1012.0
20260901233019 96 159 1.0 8.0 0.00 0.00 0.00 43 1013.7
20260901231557 96 0 0.0 8.0 0.00 0.00 0.00 43 1012.2
20260901231521 96 200 0.0 4.0 0.00 0.00 0.00 43 1013.7
20260901230117 97 134 2.0 7.0 0.00 0.00 0.00 42 1013.8
20260901230057 97 123 1.0 7.0 0.00 0.00 0.00 42 1012.1
20260901224552 97 0 0.0 5.0 0.00 0.00 0.00 42 1012.2
20260901224521 97 173 0.0 0.0 0.00 0.00 0.00 42 1013.9
20260901223057 97 57 0.0 7.0 0.00 0.00 0.00 42 1012.3
20260901223024 97 360 1.0 5.0 0.00 0.00 0.00 42 1013.9
20260901221600 98 0 0.0 6.0 0.00 0.00 0.00 40 1012.3
20260901221515 98 108 0.0 5.0 0.00 0.00 0.00 41 1013.9
20260901220055 98 0 4.0 9.0 0.00 0.00 0.00 39 1012.5
20260901220027 98 77 3.0 9.0 0.00 0.00 0.00 39 1013.9
20260901214548 98 92 4.0 9.0 0.00 0.00 0.00 41 1012.5
20260901214513 98 90 3.0 9.0 0.00 0.00 0.00 41 1014.0
20260901213109 98 252 2.0 11.0 0.00 0.00 0.00 41 1012.7
20260901213013 98 195 2.0 11.0 0.00 0.00 0.00 41 1014.2
20260901211556 99 0 1.0 5.0 0.00 0.00 0.00 41 1012.9
20260901211509 99 180 1.0 5.0 0.00 0.00 0.00 42 1014.3
20260901210054 98 0 3.0 8.0 0.00 0.00 0.00 42 1013.1
20260901210008 98 111 2.0 7.0 0.00 0.00 0.00 43 1014.6
20260901204559 98 20 2.0 9.0 0.00 0.00 0.00 43 1013.3
20260901204502 98 59 2.0 8.0 0.00 0.00 0.00 42 1014.7
20260901203121 97 217 0.0 8.0 0.00 0.00 0.00 44 1015.1
20260901203109 97 0 1.0 8.0 0.00 0.00 0.00 43 1013.5
20260901201554 96 105 3.0 6.0 0.00 0.00 0.00 48 1015.3
20260901201550 96 69 3.0 9.0 0.00 0.00 0.00 48 1013.8
20260901200052 96 119 0.0 6.0 0.00 0.00 0.00 48 1015.7
20260901200050 96 0 0.0 9.0 0.00 0.00 0.00 47 1014.0
20260901194651 96 103 3.0 9.0 0.00 0.00 0.00 46 1015.8
20260901194552 95 171 1.0 9.0 0.00 0.00 0.00 46 1014.1
20260901193111 95 252 4.0 10.0 0.00 0.00 0.00 48 1014.1
20260901193048 95 252 2.0 10.0 0.00 0.00 0.00 49 1015.9
20260901191553 95 121 3.0 10.0 0.00 0.00 0.00 47 1014.4
20260901191546 95 109 2.0 10.0 0.00 0.00 0.00 47 1016.2
20260901190106 95 147 4.0 10.0 0.00 0.00 0.00 49 1014.6
20260901190048 95 128 3.0 10.0 0.00 0.00 0.00 50 1016.3
20260901184551 95 157 2.0 9.0 0.00 0.00 0.00 48 1014.9
20260901184546 95 153 2.0 8.0 0.00 0.00 0.00 49 1016.7
20260901183056 94 189 1.0 7.0 0.00 0.00 0.00 50 1015.2
20260901183037 94 180 1.0 6.0 0.00 0.00 0.00 50 1016.8
20260901181603 93 137 3.0 12.0 0.00 0.00 0.00 52 1015.4
20260901181535 93 137 2.0 11.0 0.00 0.00 0.00 52 1016.9
20260901180059 94 0 1.0 8.0 0.00 0.00 0.00 51 1015.8
20260901180037 94 46 1.0 8.0 0.00 0.00 0.00 51 1017.3
20260901174604 94 146 2.0 11.0 0.00 0.00 0.00 51 1016.0
20260901174529 94 136 4.0 11.0 0.00 0.00 0.00 51 1017.5
20260901173053 93 86 3.0 9.0 0.00 0.00 0.00 52 1016.3
20260901173026 93 89 2.0 9.0 0.00 0.00 0.00 52 1017.7
20260901171612 92 134 4.0 10.0 0.00 0.00 0.00 54 1016.4
20260901171526 92 121 4.0 9.0 0.00 0.00 0.00 54 1017.9
20260901170104 93 115 4.0 8.0 0.00 0.00 0.00 55 1016.4
20260901170024 93 126 5.0 8.0 0.00 0.00 0.00 55 1018.1
20260901164554 91 162 1.0 9.0 0.00 0.00 0.00 58 1016.5
20260901164520 91 163 0.0 8.0 0.00 0.00 0.00 58 1018.3
20260901163056 91 84 4.0 10.0 0.00 0.00 0.00 59 1016.5
20260901163018 91 49 4.0 10.0 0.00 0.00 0.00 59 1018.3
20260901161554 90 170 5.0 9.0 0.00 0.00 0.00 60 1016.6
20260901161516 90 156 5.0 9.0 0.00 0.00 0.00 59 1018.4
20260901160059 89 0 1.0 11.0 0.00 0.00 0.00 62 1016.6
20260901160017 89 125 1.0 11.0 0.00 0.00 0.00 63 1018.4
20260901154552 89 117 6.0 10.0 0.00 0.00 0.00 64 1016.5
20260901154511 89 144 6.0 10.0 0.00 0.00 0.00 64 1018.3
20260901153103 88 211 3.0 8.0 0.00 0.00 0.00 64 1016.5
20260901153008 88 208 2.0 8.0 0.00 0.00 0.00 64 1018.1
20260901151558 87 106 3.0 8.0 0.00 0.00 0.00 67 1016.5
20260901151506 87 140 3.0 8.0 0.00 0.00 0.00 67 1018.1
20260901150053 86 127 2.0 8.0 0.00 0.00 0.00 69 1016.5
20260901150005 86 127 2.0 8.0 0.00 0.00 0.00 70 1018.2
20260901144551 86 129 1.0 7.0 0.00 0.00 0.00 72 1016.4
20260901144501 86 146 1.0 7.0 0.00 0.00 0.00 72 1018.1
20260901143113 85 140 1.0 6.0 0.00 0.00 0.00 73 1018.1
20260901143054 85 140 0.0 6.0 0.00 0.00 0.00 73 1016.4
20260901141559 85 72 1.0 5.0 0.00 0.00 0.00 76 1016.3
20260901140055 84 172 2.0 4.0 0.00 0.00 0.00 77 1018.3
20260901134618 81 0 0.0 2.0 0.00 0.00 0.00 83 1016.4
20260901133059 80 0 0.0 1.0 0.00 0.00 0.00 88 1016.2
20260901131606 77 0 0.0 1.0 0.00 0.00 0.00 93 1016.2
20260901131557 77 121 0.0 1.0 0.00 0.00 0.00 93 1017.9